This demonstration page uses our WeatherBlox Daily Observations layout. Learn more.

Left ArrowRight Arrow

Hourly Observations for June 18, 2017

Temp ( °F °C ) Dew Point ( °F °C ) Humidity (%) Winds ( mph kmh ) Pressure ( in mb ) Visibility ( mi km ) Precip ( " mm )
12:53 am 00:53 Mostly Clear 74 23.3 73 22.8 97 97 S 5 7 29.86 1011 10 16 0.00 0.00
1:53 am 01:53 Clear 74 23.3 72 22.2 94 94 S 7 11 29.84 1010 10 16 0.00 0.00
2:53 am 02:53 Clear 73 22.8 71 21.7 94 94 S 5 7 29.83 1010 10 16 0.00 0.00
3:53 am 03:53 Clear 72 22.2 71 21.7 97 97 SSW 5 7 29.85 1011 10 16 0.00 0.00
4:12 am 04:12 Mostly Cloudy 72 22.2 71 21.7 97 97 SW 3 6 29.88 1012 10 16 0.00 0.00
4:53 am 04:53 Cloudy 72 22.2 70 21.1 94 94 SSW 5 7 29.90 1012 10 16 0.00 0.00
5:43 am 05:43 Cloudy 72 22.2 70 21.1 94 94 SW 5 7 29.91 1013 10 16 0.00 0.00
5:53 am 05:53 Cloudy 72 22.2 70 21.1 94 94 SW 5 7 29.93 1014 10 16 0.00 0.00
6:53 am 06:53 Mostly Cloudy 71 21.7 70 21.1 96 96 SSE 5 7 29.93 1014 10 16 0.00 0.00
7:03 am 07:03 Mostly Sunny 71 21.7 70 21.1 96 96 S 5 7 29.94 1014 10 16 0.00 0.00
7:53 am 07:53 Sunny 73 22.8 70 21.1 90 90 S 5 7 29.93 1014 10 16 0.00 0.00
8:32 am 08:32 Mostly Sunny 73 22.8 70 21.1 90 90 SSE 7 11 29.91 1013 10 16 0.00 0.00
8:53 am 08:53 Mostly Sunny 74 23.3 70 21.1 88 88 S 8 13 29.93 1014 10 16 0.00 0.00
9:53 am 09:53 Mostly Cloudy 76 24.4 70 21.1 82 82 S 7 11 29.95 1014 10 16 0.00 0.00
10:31 am 10:31 Mostly Cloudy 78 25.6 70 21.1 76 76 S 8 13 29.94 1014 10 16 0.00 0.00
10:48 am 10:48 Mostly Cloudy 79 26 70 21 74 74 VRB 6 9 29.97 1015 10 16 0.00 0.00
10:53 am 10:53 Cloudy 78 25.6 70 21.1 76 76 SSW 7 11 29.96 1014 10 16 0.00 0.00
11:53 am 11:53 Cloudy 79 26.1 70 21.1 74 74 SSW 6 9 29.94 1014 10 16 0.00 0.00
12:53 pm 12:53 Cloudy 81 27.2 71 21.7 72 72 VRB 6 9 29.92 1013 10 16 0.00 0.00
1:53 pm 13:53 Cloudy 82 27.8 71 21.7 69 69 SW 6 9 29.92 1013 10 16 0.00 0.00
2:53 pm 14:53 Mostly Cloudy 82 27.8 72 22.2 72 72 S 8 13 29.90 1013 10 16 0.00 0.03
3:53 pm 15:53 Cloudy 80 26.7 71 21.7 74 74 SSE 5 7 29.90 1012 10 16 0.00 0.00
4:00 pm 16:00 Cloudy with Heavy Rain 76 24.4 74 23.3 94 94 S 14 22 29.91 1013 1 2 0.24 6.10
4:08 pm 16:08 Cloudy with Heavy Rain 74 23.3 74 23.3 100 100 S 6 9 29.91 1013 2 3 0.66 16.76
4:15 pm 16:15 Cloudy with Rain 75 23.9 73 22.8 94 94 SW 5 7 29.91 1013 2 3 0.70 17.78
4:24 pm 16:24 Cloudy with Light Rain 76 24.4 73 22.8 91 91 SSW 6 9 29.91 1013 10 16 0.70 17.78
4:53 pm 16:53 Cloudy with Light Rain 77 25 74 23.3 90 90 S 8 13 29.90 1012 10 16 0.70 17.78
5:53 pm 17:53 Mostly Cloudy with Light Rain 77 25 73 22.8 88 88 S 6 9 29.89 1012 9 14 0.00 0.03
6:53 pm 18:53 Mostly Cloudy 77 25 73 22.8 88 88 SSW 5 7 29.88 1012 10 16 0.00 0.03
7:53 pm 19:53 Mostly Cloudy 78 25.6 73 22.8 85 85 S 7 11 29.88 1012 10 16 0.00 0.00
8:53 pm 20:53 Cloudy 77 25 73 22.8 88 88 Calm 29.91 1013 10 16 0.00 0.00
9:53 pm 21:53 Cloudy 77 25 73 22.8 88 88 S 3 6 29.93 1014 10 16 0.00 0.00
10:53 pm 22:53 Partly Cloudy 75 23.9 74 23.3 96 96 SSW 3 6 29.94 1014 10 16 0.00 0.00

Powered by AerisWeather